DAL730 KDCA-KSEA

Flight info

Callsign DAL730
Flight time N/A
Altitude 36000
Route HORTO4 BUFFR Q178 DJB RIEKE KC72Q PMM BAE J34 ODI ABR/N0466F380 KP06Y SWTHN ZERZO MLP GLASR3
Aircraft B752/M-SDE3FGHIM3RWXY/LB1

Departure

Time 2026-05-05 19:46
Airport Ronald Reagan Washington National Airport (KDCA)

Arrival

Time N/A
Airport Seattle–Tacoma International Airport (KSEA)
Time Latitude Longitude Altitude Speed Heading
2026-05-05 19:24 38.85166 -77.04050 30 ft 0 kts 317°
2026-05-05 19:37 38.85163 -77.04045 30 ft 2 kts 305°
2026-05-05 19:38 38.85155 -77.04028 30 ft 2 kts 302°
2026-05-05 19:38 38.85147 -77.04013 30 ft 2 kts 305°
2026-05-05 19:38 38.85139 -77.03997 30 ft 2 kts 304°
2026-05-05 19:38 38.85130 -77.03981 30 ft 1 kts 304°
2026-05-05 19:39 38.85123 -77.03972 30 ft 0 kts 348°
2026-05-05 19:39 38.85118 -77.03971 30 ft 1 kts 356°
2026-05-05 19:39 38.85117 -77.03971 30 ft 0 kts 355°
2026-05-05 19:41 38.85144 -77.03947 30 ft 9 kts 46°
2026-05-05 19:41 38.85192 -77.03923 30 ft 6 kts
2026-05-05 19:41 38.85267 -77.03927 30 ft 13 kts 357°
2026-05-05 19:41 38.85366 -77.03937 30 ft 19 kts 354°
2026-05-05 19:42 38.85526 -77.03953 30 ft 23 kts 354°
2026-05-05 19:42 38.85593 -77.03960 30 ft 0 kts 356°
2026-05-05 19:43 38.85614 -77.03962 30 ft 13 kts 356°
2026-05-05 19:43 38.85783 -77.03977 30 ft 27 kts 355°
2026-05-05 19:43 38.85970 -77.03968 30 ft 18 kts 17°
2026-05-05 19:44 38.85993 -77.03960 30 ft 0 kts 16°
2026-05-05 19:45 38.86021 -77.03949 30 ft 10 kts 16°
2026-05-05 19:45 38.86080 -77.03909 30 ft 4 kts 82°
2026-05-05 19:45 38.86057 -77.03874 30 ft 14 kts 156°
2026-05-05 19:46 38.85746 -77.03835 30 ft 79 kts 176°
2026-05-05 19:46 38.84969 -77.03757 80 ft 137 kts 177°
2026-05-05 19:46 38.83944 -77.03664 561 ft 156 kts 179°
2026-05-05 19:46 38.82922 -77.03622 1496 ft 141 kts 184°
2026-05-05 19:47 38.81898 -77.03615 1679 ft 157 kts 184°
2026-05-05 19:47 38.80756 -77.03595 1902 ft 171 kts 184°
2026-05-05 19:47 38.79518 -77.03572 2128 ft 186 kts 184°
2026-05-05 19:47 38.78150 -77.03548 2316 ft 207 kts 183°
2026-05-05 19:48 38.76686 -77.03615 2779 ft 214 kts 198°
2026-05-05 19:48 38.75373 -77.04592 3054 ft 230 kts 230°
2026-05-05 19:48 38.74670 -77.06474 3442 ft 249 kts 259°
2026-05-05 19:48 38.74593 -77.08720 4148 ft 253 kts 264°
2026-05-05 19:49 38.74507 -77.10959 4837 ft 256 kts 263°
2026-05-05 19:49 38.74437 -77.12472 5323 ft 256 kts 263°
2026-05-05 19:49 38.74270 -77.15507 6229 ft 260 kts 262°
2026-05-05 19:49 38.74136 -77.17809 6981 ft 260 kts 262°
2026-05-05 19:50 38.73999 -77.20082 7744 ft 260 kts 262°
2026-05-05 19:50 38.73956 -77.22398 8526 ft 264 kts 275°
2026-05-05 19:50 38.74656 -77.24581 9246 ft 278 kts 302°
2026-05-05 19:50 38.76158 -77.26174 10009 ft 293 kts 328°
2026-05-05 19:51 38.78086 -77.27179 10505 ft 307 kts 333°
2026-05-05 19:51 38.80140 -77.28209 10781 ft 326 kts 333°
2026-05-05 19:51 38.82359 -77.29318 11055 ft 346 kts 333°
2026-05-05 19:51 38.84656 -77.30463 11318 ft 364 kts 332°
2026-05-05 19:52 38.87005 -77.31800 11688 ft 376 kts 330°
2026-05-05 19:52 38.89382 -77.33192 12507 ft 377 kts 330°
2026-05-05 19:52 38.91766 -77.34590 13179 ft 381 kts 330°
2026-05-05 19:52 38.94178 -77.36005 13827 ft 384 kts 330°
2026-05-05 19:53 38.96608 -77.37431 14504 ft 386 kts 330°
2026-05-05 19:53 38.99062 -77.38872 15196 ft 388 kts 330°
2026-05-05 19:53 39.01526 -77.40319 15746 ft 393 kts 330°
2026-05-05 19:53 39.04024 -77.41787 16413 ft 394 kts 330°
2026-05-05 19:54 39.06493 -77.43240 16950 ft 397 kts 331°
2026-05-05 19:54 39.09016 -77.44725 17529 ft 400 kts 331°
2026-05-05 19:54 39.11563 -77.46179 18047 ft 405 kts 335°
2026-05-05 19:54 39.14293 -77.47308 18550 ft 410 kts 339°
2026-05-05 19:55 39.17016 -77.48394 19003 ft 414 kts 339°
2026-05-05 19:55 39.19785 -77.49490 19577 ft 415 kts 339°
2026-05-05 19:55 39.22549 -77.50583 20018 ft 419 kts 339°
2026-05-05 19:55 39.25332 -77.51681 20498 ft 422 kts 339°
2026-05-05 19:56 39.28148 -77.52792 21053 ft 424 kts 339°
2026-05-05 19:56 39.30975 -77.53909 21466 ft 428 kts 339°
2026-05-05 19:56 39.33823 -77.55032 21992 ft 430 kts 339°
2026-05-05 19:56 39.36705 -77.56171 22413 ft 434 kts 339°
2026-05-05 19:57 39.39551 -77.57444 22858 ft 434 kts 333°
2026-05-05 19:57 39.42194 -77.59299 23253 ft 432 kts 322°
2026-05-05 19:57 39.44523 -77.61726 23821 ft 427 kts 313°
2026-05-05 19:57 39.46469 -77.64617 24191 ft 427 kts 303°
2026-05-05 19:58 39.47955 -77.67860 24684 ft 425 kts 293°
2026-05-05 19:58 39.49173 -77.71397 25059 ft 428 kts 291°
2026-05-05 19:58 39.50334 -77.74938 25483 ft 429 kts 291°
2026-05-05 19:58 39.51474 -77.78530 25902 ft 431 kts 290°
2026-05-05 19:59 39.52593 -77.82133 26322 ft 432 kts 290°
2026-05-05 19:59 39.53688 -77.85709 26759 ft 432 kts 290°
2026-05-05 19:59 39.54824 -77.89365 27002 ft 437 kts 290°
2026-05-05 19:59 39.55946 -77.92979 27394 ft 438 kts 290°
2026-05-05 20:00 39.57074 -77.96632 27760 ft 440 kts 290°
2026-05-05 20:00 39.58201 -78.00290 28172 ft 440 kts 290°
2026-05-05 20:00 39.59344 -78.04018 28462 ft 443 kts 290°
2026-05-05 20:00 39.60466 -78.07680 28925 ft 442 kts 290°
2026-05-05 20:01 39.61617 -78.11446 29062 ft 448 kts 290°
2026-05-05 20:01 39.62751 -78.15164 29513 ft 447 kts 290°
2026-05-05 20:01 39.63888 -78.18899 29944 ft 446 kts 290°
2026-05-05 20:01 39.65015 -78.22602 30480 ft 443 kts 290°
2026-05-05 20:02 39.66140 -78.26305 30932 ft 440 kts 290°
2026-05-05 20:02 39.67256 -78.29985 31538 ft 434 kts 290°
2026-05-05 20:02 39.68353 -78.33607 31869 ft 433 kts 290°
2026-05-05 20:02 39.69441 -78.37206 32390 ft 429 kts 291°
2026-05-05 20:03 39.70530 -78.40812 32769 ft 427 kts 291°
2026-05-05 20:03 39.71615 -78.44408 33132 ft 425 kts 290°
2026-05-05 20:03 39.72683 -78.47954 33516 ft 421 kts 291°
2026-05-05 20:03 39.73748 -78.51498 33848 ft 419 kts 291°
2026-05-05 20:04 39.74802 -78.55006 34181 ft 417 kts 291°
2026-05-05 20:04 39.75857 -78.58521 34422 ft 416 kts 290°
2026-05-05 20:04 39.76904 -78.62018 34716 ft 413 kts 291°
2026-05-05 20:04 39.77948 -78.65501 34926 ft 412 kts 290°
2026-05-05 20:05 39.78985 -78.68977 34976 ft 415 kts 290°
2026-05-05 20:05 39.80032 -78.72481 35331 ft 410 kts 290°
2026-05-05 20:05 39.81065 -78.75948 35360 ft 414 kts 290°
2026-05-05 20:05 39.82090 -78.79392 35652 ft 410 kts 290°
2026-05-05 20:06 39.83121 -78.82858 35901 ft 405 kts 291°
2026-05-05 20:06 39.85146 -78.89686 35918 ft 406 kts 290°
2026-05-05 20:07 39.87174 -78.96538 35928 ft 407 kts 290°
2026-05-05 20:07 39.89164 -79.03278 35946 ft 408 kts 290°
2026-05-05 20:08 39.91186 -79.10143 35937 ft 406 kts 290°
2026-05-05 20:08 39.92506 -79.14633 35925 ft 406 kts 290°
2026-05-05 20:09 39.94503 -79.21448 35910 ft 406 kts 290°
2026-05-05 20:09 39.96509 -79.28307 35919 ft 407 kts 290°
2026-05-05 20:10 39.98515 -79.35181 35903 ft 405 kts 290°
2026-05-05 20:10 40.00687 -79.41943 35896 ft 405 kts 298°
2026-05-05 20:11 40.03770 -79.48064 35906 ft 406 kts 301°
2026-05-05 20:11 40.06908 -79.54206 35880 ft 404 kts 301°
2026-05-05 20:12 40.10028 -79.60308 35880 ft 406 kts 301°
2026-05-05 20:12 40.13155 -79.66426 35882 ft 405 kts 301°
2026-05-05 20:13 40.16280 -79.72549 35879 ft 406 kts 301°
2026-05-05 20:13 40.19383 -79.78635 35863 ft 404 kts 300°
2026-05-05 20:14 40.22507 -79.84780 35867 ft 404 kts 301°
2026-05-05 20:14 40.25603 -79.90877 35858 ft 405 kts 301°
2026-05-05 20:15 40.28702 -79.96991 35869 ft 402 kts 300°
2026-05-05 20:15 40.31780 -80.03080 35856 ft 402 kts 300°
2026-05-05 20:16 40.34868 -80.09197 35853 ft 401 kts 301°
2026-05-05 20:16 40.37931 -80.15277 35851 ft 402 kts 300°
2026-05-05 20:17 40.41011 -80.21404 35850 ft 403 kts 300°
2026-05-05 20:17 40.44087 -80.27532 35844 ft 402 kts 300°
2026-05-05 20:18 40.47149 -80.33646 35852 ft 402 kts 300°
2026-05-05 20:18 40.50192 -80.39736 35847 ft 402 kts 300°
2026-05-05 20:19 40.53265 -80.45898 35845 ft 402 kts 300°
2026-05-05 20:19 40.56308 -80.52008 35836 ft 401 kts 300°
2026-05-05 20:20 40.59358 -80.58148 35842 ft 402 kts 299°
2026-05-05 20:20 40.62389 -80.64259 35834 ft 402 kts 300°
2026-05-05 20:21 40.65443 -80.70431 35849 ft 400 kts 299°
2026-05-05 20:21 40.68465 -80.76550 35834 ft 400 kts 299°
2026-05-05 20:22 40.71483 -80.82673 35848 ft 401 kts 299°
2026-05-05 20:22 40.74517 -80.88843 35835 ft 399 kts 299°
2026-05-05 20:23 40.77531 -80.94981 35844 ft 399 kts 299°
2026-05-05 20:23 40.80542 -81.01125 35831 ft 400 kts 298°
2026-05-05 20:24 40.83561 -81.07299 35832 ft 401 kts 298°
2026-05-05 20:24 40.86565 -81.13456 35826 ft 401 kts 298°
2026-05-05 20:25 40.89588 -81.19664 35820 ft 400 kts 298°
2026-05-05 20:25 40.92587 -81.25835 35837 ft 399 kts 298°
2026-05-05 20:26 40.95570 -81.31986 35825 ft 399 kts 298°
2026-05-05 20:26 40.98578 -81.38197 35834 ft 401 kts 298°
2026-05-05 20:27 41.01575 -81.44402 35827 ft 400 kts 298°
2026-05-05 20:27 41.04565 -81.50603 35827 ft 399 kts 298°
2026-05-05 20:28 41.07540 -81.56786 35824 ft 400 kts 298°
2026-05-05 20:28 41.10531 -81.63013 35823 ft 400 kts 298°
2026-05-05 20:29 41.13509 -81.69230 35825 ft 398 kts 297°
2026-05-05 20:29 41.16486 -81.75456 35828 ft 400 kts 297°
2026-05-05 20:30 41.19453 -81.81670 35819 ft 401 kts 297°
2026-05-05 20:30 41.22417 -81.87895 35820 ft 398 kts 297°
2026-05-05 20:31 41.25367 -81.94099 35824 ft 399 kts 297°
2026-05-05 20:31 41.28316 -82.00317 35827 ft 397 kts 297°
2026-05-05 20:32 41.31256 -82.06529 35830 ft 398 kts 297°
2026-05-05 20:32 41.34202 -82.12763 35813 ft 399 kts 296°
2026-05-05 20:33 41.37267 -82.18896 35832 ft 402 kts 301°
2026-05-05 20:33 41.40530 -82.24874 35831 ft 400 kts 300°
2026-05-05 20:34 41.43781 -82.30870 35818 ft 399 kts 300°
2026-05-05 20:34 41.47009 -82.36835 35817 ft 400 kts 299°
2026-05-05 20:35 41.50258 -82.42851 35817 ft 400 kts 300°
2026-05-05 20:35 41.53051 -82.49146 35828 ft 391 kts 290°
2026-05-05 20:36 41.55213 -82.55803 35802 ft 391 kts 289°
2026-05-05 20:36 41.57343 -82.62428 35819 ft 390 kts 289°
2026-05-05 20:37 41.59471 -82.69095 35833 ft 389 kts 288°
2026-05-05 20:37 41.61578 -82.75733 35830 ft 390 kts 289°
2026-05-05 20:38 41.63687 -82.82398 35840 ft 390 kts 289°
2026-05-05 20:38 41.65800 -82.89092 35838 ft 390 kts 288°
2026-05-05 20:39 41.67886 -82.95724 35836 ft 386 kts 288°
2026-05-05 20:39 41.69964 -83.02340 35839 ft 388 kts 289°
2026-05-05 20:40 41.72036 -83.08965 35839 ft 389 kts 289°
2026-05-05 20:40 41.74122 -83.15653 35843 ft 388 kts 289°
2026-05-05 20:41 41.76192 -83.22296 35840 ft 390 kts 289°
2026-05-05 20:41 41.78276 -83.28999 35834 ft 388 kts 288°
2026-05-05 20:42 41.80339 -83.35660 35842 ft 390 kts 289°
2026-05-05 20:42 41.82418 -83.42390 35831 ft 389 kts 289°
2026-05-05 20:43 41.84478 -83.49070 35847 ft 389 kts 288°
2026-05-05 20:43 41.86539 -83.55774 35848 ft 391 kts 289°
2026-05-05 20:44 41.88601 -83.62488 35847 ft 391 kts 288°
2026-05-05 20:44 41.90675 -83.69276 35838 ft 392 kts 288°
2026-05-05 20:45 41.93738 -83.79314 35844 ft 389 kts 288°
2026-05-05 20:45 41.95788 -83.86056 35851 ft 390 kts 288°
2026-05-05 20:46 41.97832 -83.92796 35846 ft 391 kts 288°
2026-05-05 20:46 41.99868 -83.99550 35848 ft 392 kts 287°
2026-05-05 20:47 42.01527 -84.06491 35842 ft 389 kts 284°
2026-05-05 20:47 42.03119 -84.13407 35834 ft 388 kts 284°
2026-05-05 20:48 42.04711 -84.20331 35832 ft 389 kts 283°
2026-05-05 20:48 42.06303 -84.27259 35825 ft 387 kts 283°
2026-05-05 20:49 42.07869 -84.34103 35829 ft 385 kts 283°
2026-05-05 20:49 42.09436 -84.40972 35834 ft 384 kts 284°
2026-05-05 20:50 42.11000 -84.47842 35821 ft 384 kts 283°
2026-05-05 20:50 42.12561 -84.54720 35830 ft 383 kts 284°
2026-05-05 20:51 42.14100 -84.61521 35823 ft 381 kts 283°
2026-05-05 20:51 42.15631 -84.68312 35844 ft 379 kts 283°
2026-05-05 20:52 42.17162 -84.75119 35840 ft 381 kts 283°
2026-05-05 20:52 42.18687 -84.81921 35843 ft 379 kts 283°
2026-05-05 20:53 42.20198 -84.88690 35842 ft 377 kts 282°
2026-05-05 20:53 42.21702 -84.95438 35852 ft 378 kts 283°
2026-05-05 20:54 42.23217 -85.02266 35846 ft 379 kts 283°
2026-05-05 20:54 42.24717 -85.09037 35854 ft 377 kts 283°
2026-05-05 20:55 42.26210 -85.15807 35857 ft 380 kts 282°
2026-05-05 20:55 42.27705 -85.22607 35847 ft 377 kts 282°
2026-05-05 20:56 42.29195 -85.29405 35847 ft 378 kts 283°
2026-05-05 20:56 42.30673 -85.36161 35845 ft 378 kts 283°
2026-05-05 20:57 42.32159 -85.42985 35844 ft 378 kts 282°
2026-05-05 20:57 42.33635 -85.49778 35841 ft 378 kts 282°
2026-05-05 20:58 42.35104 -85.56563 35845 ft 376 kts 283°
2026-05-05 20:58 42.36569 -85.63356 35845 ft 376 kts 282°
2026-05-05 20:59 42.38034 -85.70166 35860 ft 377 kts 282°
2026-05-05 20:59 42.39527 -85.77125 35858 ft 377 kts 282°
2026-05-05 21:00 42.40979 -85.83920 35846 ft 375 kts 282°
2026-05-05 21:00 42.42430 -85.90736 35854 ft 376 kts 282°
2026-05-05 21:01 42.43870 -85.97507 35851 ft 376 kts 282°
2026-05-05 21:01 42.45302 -86.04280 35860 ft 375 kts 282°
2026-05-05 21:02 42.46802 -86.11030 35863 ft 378 kts 286°
2026-05-05 21:02 42.48839 -86.17602 35860 ft 379 kts 287°
2026-05-05 21:03 42.50888 -86.24200 35861 ft 378 kts 287°
2026-05-05 21:03 42.52921 -86.30757 35844 ft 380 kts 287°
2026-05-05 21:04 42.54952 -86.37331 35848 ft 379 kts 287°
2026-05-05 21:04 42.56972 -86.43890 35849 ft 376 kts 288°
2026-05-05 21:05 42.58986 -86.50446 35850 ft 377 kts 287°
2026-05-05 21:05 42.60996 -86.57007 35842 ft 378 kts 288°
2026-05-05 21:06 42.62998 -86.63555 35838 ft 377 kts 288°
2026-05-05 21:06 42.65008 -86.70149 35865 ft 379 kts 287°
2026-05-05 21:07 42.67011 -86.76735 35853 ft 374 kts 287°
2026-05-05 21:07 42.68991 -86.83263 35850 ft 376 kts 287°
2026-05-05 21:08 42.70972 -86.89810 35856 ft 376 kts 287°
2026-05-05 21:08 42.72942 -86.96335 35859 ft 373 kts 287°
2026-05-05 21:09 42.74915 -87.02889 35853 ft 375 kts 287°
2026-05-05 21:09 42.76881 -87.09436 35848 ft 374 kts 287°
2026-05-05 21:10 42.78834 -87.15953 35859 ft 373 kts 287°
2026-05-05 21:10 42.80780 -87.22469 35870 ft 373 kts 287°
2026-05-05 21:11 42.82728 -87.29008 35845 ft 374 kts 287°
2026-05-05 21:11 42.84671 -87.35538 35846 ft 371 kts 286°
2026-05-05 21:12 42.86608 -87.42081 35866 ft 373 kts 287°
2026-05-05 21:12 42.88529 -87.48566 35851 ft 371 kts 286°
2026-05-05 21:13 42.90447 -87.55071 35829 ft 369 kts 286°
2026-05-05 21:13 42.92371 -87.61609 35859 ft 371 kts 287°
2026-05-05 21:14 42.94278 -87.68106 35849 ft 369 kts 287°
2026-05-05 21:14 42.96188 -87.74632 35871 ft 370 kts 286°
2026-05-05 21:15 42.98087 -87.81134 35865 ft 369 kts 286°
2026-05-05 21:15 42.99971 -87.87601 35867 ft 368 kts 286°
2026-05-05 21:16 43.01859 -87.94099 35854 ft 368 kts 286°
2026-05-05 21:16 43.03736 -88.00582 35851 ft 366 kts 287°
2026-05-05 21:17 43.05609 -88.07057 35855 ft 367 kts 286°
2026-05-05 21:17 43.07468 -88.13509 35850 ft 367 kts 286°
2026-05-05 21:18 43.09341 -88.20026 35846 ft 368 kts 287°
2026-05-05 21:18 43.11209 -88.26536 35860 ft 367 kts 287°
2026-05-05 21:19 43.13068 -88.33029 35863 ft 368 kts 286°
2026-05-05 21:19 43.14926 -88.39539 35859 ft 368 kts 287°
2026-05-05 21:20 43.16771 -88.46025 35857 ft 368 kts 286°
2026-05-05 21:20 43.18628 -88.52568 35837 ft 367 kts 286°
2026-05-05 21:21 43.20471 -88.59077 35853 ft 369 kts 286°
2026-05-05 21:21 43.22313 -88.65601 35843 ft 367 kts 285°
2026-05-05 21:22 43.24144 -88.72103 35863 ft 367 kts 285°
2026-05-05 21:22 43.25975 -88.78622 35858 ft 369 kts 285°
2026-05-05 21:23 43.27808 -88.85159 35845 ft 368 kts 285°
2026-05-05 21:23 43.29632 -88.91694 35849 ft 368 kts 285°
2026-05-05 21:24 43.31467 -88.98277 35863 ft 369 kts 285°
2026-05-05 21:24 43.33290 -89.04831 35861 ft 368 kts 285°
2026-05-05 21:25 43.35094 -89.11340 35832 ft 366 kts 285°
2026-05-05 21:25 43.36909 -89.17909 35820 ft 368 kts 285°
2026-05-05 21:26 43.38715 -89.24458 35868 ft 366 kts 285°
2026-05-05 21:26 43.40522 -89.31028 35852 ft 367 kts 286°
2026-05-05 21:27 43.42316 -89.37566 35884 ft 367 kts 286°
2026-05-05 21:27 43.44115 -89.44144 35847 ft 368 kts 285°
2026-05-05 21:28 43.45909 -89.50719 35857 ft 369 kts 285°
2026-05-05 21:28 43.47704 -89.57317 36125 ft 367 kts 285°
2026-05-05 21:29 43.48590 -89.60585 35878 ft 372 kts 286°
2026-05-05 21:29 43.49491 -89.63898 35870 ft 366 kts 285°
2026-05-05 21:29 43.51259 -89.70436 35888 ft 366 kts 285°
2026-05-05 21:30 43.53043 -89.77048 35886 ft 369 kts 285°
2026-05-05 21:30 43.54823 -89.83663 35882 ft 368 kts 285°
2026-05-05 21:31 43.56593 -89.90250 35876 ft 369 kts 285°
2026-05-05 21:31 43.58364 -89.96873 35879 ft 369 kts 285°
2026-05-05 21:32 43.60132 -90.03493 35865 ft 368 kts 285°
2026-05-05 21:32 43.61895 -90.10116 35872 ft 369 kts 285°
2026-05-05 21:33 43.63646 -90.16712 35861 ft 369 kts 285°
2026-05-05 21:33 43.65348 -90.23355 35879 ft 368 kts 282°
2026-05-05 21:34 43.66807 -90.30100 35864 ft 367 kts 282°
2026-05-05 21:34 43.68265 -90.36856 35862 ft 367 kts 282°
2026-05-05 21:35 43.69709 -90.43588 35860 ft 366 kts 283°
2026-05-05 21:35 43.71149 -90.50326 35869 ft 367 kts 282°
2026-05-05 21:36 43.72590 -90.57087 35862 ft 367 kts 283°
2026-05-05 21:36 43.74019 -90.63825 35857 ft 367 kts 283°
2026-05-05 21:37 43.75449 -90.70583 35885 ft 368 kts 282°
2026-05-05 21:37 43.76879 -90.77362 35894 ft 366 kts 282°
2026-05-05 21:38 43.78299 -90.84119 35890 ft 366 kts 281°
2026-05-05 21:38 43.79716 -90.90894 35894 ft 367 kts 282°
2026-05-05 21:39 43.81129 -90.97656 35888 ft 367 kts 282°
2026-05-05 21:39 43.82541 -91.04441 35902 ft 368 kts 282°
2026-05-05 21:40 43.83952 -91.11244 35895 ft 366 kts 282°
2026-05-05 21:40 43.85345 -91.17985 35898 ft 368 kts 282°
2026-05-05 21:41 43.86746 -91.24783 35887 ft 368 kts 282°
2026-05-05 21:41 43.88150 -91.31621 35894 ft 368 kts 282°
2026-05-05 21:42 43.89544 -91.38433 35892 ft 368 kts 282°
2026-05-05 21:42 43.90934 -91.45246 35902 ft 369 kts 282°
2026-05-05 21:43 43.92564 -91.51989 35896 ft 371 kts 284°
2026-05-05 21:43 43.94270 -91.58697 35886 ft 370 kts 285°
2026-05-05 21:44 43.95978 -91.65452 35894 ft 372 kts 284°
2026-05-05 21:44 43.97684 -91.72218 35907 ft 372 kts 284°
2026-05-05 21:45 43.99378 -91.78950 35908 ft 371 kts 285°
2026-05-05 21:45 44.01067 -91.85693 35894 ft 372 kts 285°
2026-05-05 21:46 44.02771 -91.92513 35910 ft 372 kts 284°
2026-05-05 21:46 44.04449 -91.99243 35889 ft 372 kts 284°
2026-05-05 21:47 44.06134 -92.06031 35894 ft 371 kts 285°
2026-05-05 21:47 44.07814 -92.12814 35888 ft 373 kts 284°
2026-05-05 21:48 44.09499 -92.19638 35890 ft 374 kts 284°
2026-05-05 21:48 44.11176 -92.26448 35894 ft 373 kts 284°
2026-05-05 21:49 44.12857 -92.33296 35894 ft 374 kts 284°
2026-05-05 21:49 44.14537 -92.40164 35900 ft 375 kts 284°
2026-05-05 21:50 44.16207 -92.47006 35889 ft 373 kts 284°
2026-05-05 21:50 44.17868 -92.53836 35897 ft 375 kts 284°
2026-05-05 21:51 44.19541 -92.60740 35899 ft 377 kts 285°
2026-05-05 21:51 44.21201 -92.67600 35907 ft 376 kts 284°
2026-05-05 21:52 44.23693 -92.77946 35891 ft 376 kts 284°
2026-05-05 21:53 44.25348 -92.84847 35913 ft 378 kts 284°
2026-05-05 21:53 44.26999 -92.91743 35905 ft 376 kts 284°
2026-05-05 21:54 44.28645 -92.98650 35900 ft 377 kts 283°
2026-05-05 21:54 44.30304 -93.05629 35913 ft 378 kts 284°
2026-05-05 21:55 44.31948 -93.12562 35927 ft 378 kts 284°
2026-05-05 21:55 44.33587 -93.19507 35917 ft 378 kts 284°
2026-05-05 21:56 44.35218 -93.26430 35912 ft 378 kts 284°
2026-05-05 21:56 44.36863 -93.33437 35920 ft 379 kts 284°
2026-05-05 21:57 44.38490 -93.40389 35908 ft 378 kts 284°
2026-05-05 21:57 44.40114 -93.47350 35906 ft 379 kts 284°
2026-05-05 21:58 44.41746 -93.54363 35899 ft 380 kts 284°
2026-05-05 21:58 44.43377 -93.61401 35889 ft 382 kts 284°
2026-05-05 21:59 44.45004 -93.68443 35912 ft 380 kts 283°
2026-05-05 21:59 44.46620 -93.75462 35908 ft 382 kts 283°
2026-05-05 22:00 44.48239 -93.82512 35909 ft 381 kts 283°
2026-05-05 22:00 44.49854 -93.89573 35914 ft 382 kts 283°
2026-05-05 22:01 44.51466 -93.96641 35913 ft 382 kts 284°
2026-05-05 22:01 44.53066 -94.03673 35907 ft 381 kts 284°
2026-05-05 22:02 44.54677 -94.10786 35919 ft 383 kts 283°
2026-05-05 22:02 44.56282 -94.17889 35907 ft 382 kts 284°
2026-05-05 22:03 44.57871 -94.24946 35904 ft 383 kts 284°
2026-05-05 22:03 44.59477 -94.32108 35909 ft 386 kts 283°
2026-05-05 22:04 44.61075 -94.39246 35900 ft 384 kts 283°
2026-05-05 22:04 44.62669 -94.46402 35906 ft 384 kts 283°
2026-05-05 22:05 44.64251 -94.53521 35897 ft 385 kts 283°
2026-05-05 22:05 44.65839 -94.60701 35909 ft 387 kts 283°
2026-05-05 22:06 44.67422 -94.67875 35924 ft 387 kts 283°
2026-05-05 22:06 44.69012 -94.75101 35917 ft 387 kts 283°
2026-05-05 22:07 44.70595 -94.82324 35924 ft 389 kts 283°
2026-05-05 22:07 44.72166 -94.89518 35924 ft 387 kts 283°
2026-05-05 22:08 44.73747 -94.96780 35938 ft 389 kts 283°
2026-05-05 22:08 44.75317 -95.04022 35942 ft 391 kts 283°
2026-05-05 22:09 44.76894 -95.11314 35926 ft 389 kts 283°
2026-05-05 22:09 44.78469 -95.18626 35928 ft 391 kts 283°
2026-05-05 22:10 44.80027 -95.25890 35916 ft 390 kts 284°
2026-05-05 22:10 44.81594 -95.33212 35915 ft 391 kts 283°
2026-05-05 22:11 44.83163 -95.40574 35926 ft 393 kts 283°
2026-05-05 22:11 44.84725 -95.47925 35936 ft 392 kts 283°
2026-05-05 22:12 44.86280 -95.55273 35941 ft 393 kts 284°
2026-05-05 22:12 44.87830 -95.62627 35940 ft 394 kts 284°
2026-05-05 22:13 44.89381 -95.70008 35949 ft 394 kts 283°
2026-05-05 22:13 44.90929 -95.77407 35955 ft 396 kts 283°
2026-05-05 22:14 44.92477 -95.84826 35950 ft 394 kts 283°
2026-05-05 22:14 44.94021 -95.92252 35933 ft 394 kts 283°
2026-05-05 22:15 44.95555 -95.99667 35939 ft 396 kts 283°
2026-05-05 22:15 44.97089 -96.07099 35951 ft 397 kts 283°
2026-05-05 22:16 44.98624 -96.14563 35933 ft 396 kts 283°
2026-05-05 22:16 45.00151 -96.22018 35950 ft 399 kts 283°
2026-05-05 22:17 45.01689 -96.29562 35945 ft 398 kts 283°
2026-05-05 22:17 45.03212 -96.37053 35946 ft 400 kts 283°
2026-05-05 22:18 45.04738 -96.44586 35945 ft 401 kts 283°
2026-05-05 22:18 45.06256 -96.52110 35927 ft 398 kts 284°
2026-05-05 22:19 45.07769 -96.59640 35928 ft 401 kts 283°
2026-05-05 22:19 45.09290 -96.67236 35945 ft 401 kts 283°
2026-05-05 22:20 45.10801 -96.74814 35941 ft 403 kts 283°
2026-05-05 22:20 45.12307 -96.82397 35943 ft 402 kts 283°
2026-05-05 22:21 45.13819 -96.90030 35937 ft 403 kts 283°
2026-05-05 22:21 45.15320 -96.97643 35929 ft 404 kts 283°
2026-05-05 22:22 45.16812 -97.05244 35933 ft 403 kts 283°
2026-05-05 22:22 45.18311 -97.12912 35932 ft 405 kts 283°
2026-05-05 22:23 45.19800 -97.20554 35934 ft 405 kts 283°
2026-05-05 22:23 45.21295 -97.28252 35929 ft 404 kts 283°
2026-05-05 22:24 45.22772 -97.35899 35933 ft 406 kts 283°
2026-05-05 22:24 45.24258 -97.43617 35937 ft 406 kts 283°
2026-05-05 22:25 45.25737 -97.51327 35932 ft 406 kts 283°
2026-05-05 22:25 45.27200 -97.58989 35927 ft 406 kts 283°
2026-05-05 22:26 45.28673 -97.66731 35936 ft 407 kts 283°
2026-05-05 22:26 45.30141 -97.74484 35945 ft 408 kts 283°
2026-05-05 22:27 45.31596 -97.82193 35946 ft 407 kts 283°
2026-05-05 22:27 45.33054 -97.89957 35947 ft 408 kts 283°
2026-05-05 22:28 45.34508 -97.97728 35949 ft 408 kts 283°
2026-05-05 22:28 45.35960 -98.05516 35950 ft 409 kts 283°
2026-05-05 22:29 45.37405 -98.13312 35955 ft 409 kts 283°
2026-05-05 22:29 45.38849 -98.21117 35959 ft 411 kts 283°
2026-05-05 22:30 45.40292 -98.28961 35961 ft 409 kts 283°
2026-05-05 22:30 45.41713 -98.36734 35972 ft 411 kts 283°
2026-05-05 22:31 45.43118 -98.44630 35976 ft 411 kts 283°
2026-05-05 22:31 45.44513 -98.52509 35970 ft 412 kts 283°
2026-05-05 22:32 45.45900 -98.60382 35964 ft 411 kts 283°
2026-05-05 22:32 45.47283 -98.68268 35973 ft 412 kts 282°
2026-05-05 22:33 45.48671 -98.76211 35964 ft 412 kts 282°
2026-05-05 22:33 45.50044 -98.84111 35967 ft 413 kts 282°
2026-05-05 22:34 45.51404 -98.91973 35959 ft 412 kts 282°
2026-05-05 22:34 45.52747 -98.99770 35969 ft 415 kts 282°
2026-05-05 22:35 45.54107 -99.07694 35963 ft 413 kts 282°
2026-05-05 22:35 45.55472 -99.15689 35959 ft 414 kts 282°
2026-05-05 22:36 45.56822 -99.23633 35962 ft 415 kts 282°
2026-05-05 22:36 45.58173 -99.31619 35954 ft 414 kts 282°
2026-05-05 22:37 45.59518 -99.39600 35957 ft 416 kts 282°
2026-05-05 22:37 45.60852 -99.47559 35952 ft 415 kts 283°
2026-05-05 22:38 45.62198 -99.55624 35955 ft 418 kts 282°
2026-05-05 22:38 45.63533 -99.63669 35955 ft 417 kts 283°
2026-05-05 22:39 45.64860 -99.71696 35963 ft 417 kts 282°
2026-05-05 22:39 45.66177 -99.79700 35967 ft 418 kts 282°
2026-05-05 22:40 45.67504 -99.87804 35964 ft 418 kts 282°
2026-05-05 22:40 45.68816 -99.95852 35970 ft 419 kts 282°
2026-05-05 22:41 45.70132 -100.03968 35967 ft 418 kts 282°
2026-05-05 22:41 45.71431 -100.12011 35968 ft 420 kts 282°
2026-05-05 22:42 45.72739 -100.20160 35965 ft 420 kts 282°
2026-05-05 22:42 45.74031 -100.28240 35964 ft 420 kts 282°
2026-05-05 22:43 45.75328 -100.36395 35969 ft 421 kts 282°
2026-05-05 22:43 45.76616 -100.44535 35965 ft 421 kts 282°
2026-05-05 22:44 45.77897 -100.52670 35970 ft 422 kts 282°
2026-05-05 22:44 45.79179 -100.60853 35970 ft 421 kts 282°
2026-05-05 22:45 45.80458 -100.69053 35978 ft 422 kts 282°
2026-05-05 22:45 45.81728 -100.77238 35977 ft 424 kts 282°
2026-05-05 22:46 45.82998 -100.85468 35975 ft 422 kts 282°
2026-05-05 22:46 45.84255 -100.93652 35974 ft 424 kts 282°
2026-05-05 22:47 45.85512 -101.01882 35971 ft 423 kts 282°
2026-05-05 22:47 45.86761 -101.10101 35973 ft 424 kts 282°
2026-05-05 22:48 45.88015 -101.18394 36213 ft 426 kts 282°
2026-05-05 22:48 45.88638 -101.22529 36369 ft 426 kts 282°
2026-05-05 22:48 45.89257 -101.26649 36473 ft 426 kts 282°
2026-05-05 22:48 45.89875 -101.30775 36590 ft 427 kts 282°
2026-05-05 22:49 45.90497 -101.34942 36726 ft 426 kts 282°
2026-05-05 22:49 45.91117 -101.39097 36848 ft 426 kts 282°
2026-05-05 22:49 45.91736 -101.43264 36930 ft 427 kts 282°
2026-05-05 22:49 45.92348 -101.47397 37053 ft 426 kts 282°
2026-05-05 22:50 45.92967 -101.51584 37092 ft 428 kts 282°
2026-05-05 22:50 45.94200 -101.59956 37312 ft 427 kts 282°
2026-05-05 22:51 45.95423 -101.68308 37451 ft 428 kts 282°
2026-05-05 22:51 45.96646 -101.76702 37608 ft 428 kts 282°
2026-05-05 22:52 45.97850 -101.85017 37743 ft 429 kts 282°
2026-05-05 22:52 45.98460 -101.89238 37850 ft 428 kts 282°
2026-05-05 22:52 45.99061 -101.93420 37893 ft 428 kts 282°
2026-05-05 22:53 46.00123 -102.01826 37898 ft 429 kts 278°
2026-05-05 22:53 46.00874 -102.10308 37898 ft 429 kts 278°
2026-05-05 22:54 46.01611 -102.18793 37908 ft 430 kts 278°
2026-05-05 22:54 46.02337 -102.27304 37908 ft 430 kts 278°
2026-05-05 22:55 46.03056 -102.35840 37936 ft 430 kts 277°
2026-05-05 22:55 46.03762 -102.44323 37929 ft 430 kts 278°
2026-05-05 22:56 46.04464 -102.52832 37965 ft 430 kts 278°
2026-05-05 22:56 46.05164 -102.61406 37957 ft 431 kts 277°
2026-05-05 22:57 46.05854 -102.69927 37969 ft 431 kts 277°
2026-05-05 22:57 46.06540 -102.78490 37978 ft 431 kts 277°
2026-05-05 22:58 46.07214 -102.86984 38004 ft 428 kts 277°
2026-05-05 22:58 46.07880 -102.95454 37989 ft 429 kts 277°
2026-05-05 22:59 46.08545 -103.03992 37990 ft 429 kts 277°
2026-05-05 22:59 46.09202 -103.12506 38000 ft 430 kts 277°
2026-05-05 23:00 46.10180 -103.25359 38014 ft 429 kts 277°
2026-05-05 23:00 46.10819 -103.33857 38012 ft 430 kts 277°
2026-05-05 23:01 46.11456 -103.42408 38016 ft 431 kts 277°
2026-05-05 23:01 46.12085 -103.50938 38007 ft 431 kts 277°
2026-05-05 23:02 46.12707 -103.59474 37999 ft 431 kts 277°
2026-05-05 23:02 46.13327 -103.68079 38002 ft 432 kts 277°
2026-05-05 23:03 46.13940 -103.76656 38004 ft 432 kts 277°
2026-05-05 23:03 46.14547 -103.85257 38001 ft 433 kts 277°
2026-05-05 23:04 46.15152 -103.93912 38006 ft 434 kts 277°
2026-05-05 23:04 46.15745 -104.02502 38014 ft 434 kts 277°
2026-05-05 23:05 46.16337 -104.11163 38010 ft 435 kts 277°
2026-05-05 23:05 46.16922 -104.19826 38010 ft 436 kts 277°
2026-05-05 23:06 46.17502 -104.28507 38009 ft 436 kts 277°
2026-05-05 23:06 46.18073 -104.37151 38009 ft 436 kts 277°
2026-05-05 23:07 46.18638 -104.45818 38003 ft 437 kts 277°
2026-05-05 23:07 46.19202 -104.54562 38003 ft 438 kts 277°
2026-05-05 23:08 46.19758 -104.63283 38007 ft 438 kts 277°
2026-05-05 23:08 46.20306 -104.71998 38015 ft 438 kts 277°
2026-05-05 23:09 46.20848 -104.80720 38016 ft 439 kts 277°
2026-05-05 23:09 46.21386 -104.89492 38015 ft 440 kts 277°
2026-05-05 23:10 46.21917 -104.98248 38013 ft 440 kts 277°
2026-05-05 23:10 46.22442 -105.07018 38017 ft 441 kts 277°
2026-05-05 23:11 46.22958 -105.15758 38025 ft 441 kts 277°
2026-05-05 23:11 46.23754 -105.24490 38039 ft 438 kts 285°
2026-05-05 23:12 46.25084 -105.33068 38032 ft 438 kts 284°
2026-05-05 23:12 46.26389 -105.41605 38031 ft 439 kts 284°
2026-05-05 23:13 46.27699 -105.50213 38030 ft 439 kts 284°
2026-05-05 23:13 46.28992 -105.58758 38034 ft 439 kts 285°
2026-05-05 23:14 46.30295 -105.67407 38042 ft 439 kts 284°
2026-05-05 23:14 46.31580 -105.75987 38053 ft 440 kts 284°
2026-05-05 23:15 46.32860 -105.84583 38062 ft 440 kts 284°
2026-05-05 23:15 46.34138 -105.93208 38060 ft 440 kts 284°
2026-05-05 23:16 46.35405 -106.01814 38060 ft 440 kts 284°
2026-05-05 23:16 46.36675 -106.10486 38063 ft 440 kts 284°
2026-05-05 23:17 46.37935 -106.19134 38064 ft 441 kts 284°
2026-05-05 23:17 46.39186 -106.27773 38055 ft 441 kts 284°
2026-05-05 23:18 46.40437 -106.36457 38049 ft 442 kts 284°
2026-05-05 23:18 46.41678 -106.45127 38052 ft 442 kts 284°